Regional Weather Roundup
Issued by NWS Newport/Morehead, NC

Current Version | Previous Version | Graphics & Text | Print | Product List | Glossary Off
Versions: 1 2 3 4 5 6 7 8 9 10 11 12 13 14 15 16 17 18 19 20 21 22 23 24 25 26 27 28 29 30 31 32 33 34 35 36 37 38 39 40 41 42 43 44 45 46 47 48 49 50

000
ASUS42 KMHX 250024
RWRMHX
WEATHER ROUNDUP FOR EASTERN NORTH CAROLINA
NATIONAL WEATHER SERVICE NEWPORT/MOREHEAD CITY NC
800 PM EDT SAT SEP 24 2016

NOTE: "FAIR" INDICATES FEW OR NO CLOUDS BELOW 12,000 FEET
WITH NO SIGNIFICANT WEATHER AND/OR OBSTRUCTIONS TO VISIBILITY

NCZ015>017-031-032-045>047-102-103-250100-
NORTH COAST

CITY           SKY/WX    TMP DP  RH WIND       PRES   REMARKS
EDENTON        MOCLDY    76  73  90 E5        30.05R
ELIZABETH CITY CLOUDY    74  70  87 NE13      30.05S
KITTY HAWK     NOT AVBL
MANTEO         CLOUDY    74  70  89 NE15      30.05S

$$

NCZ045>047-081-094-103-104-250100-
CENTRAL COAST

CITY           SKY/WX    TMP DP  RH WIND       PRES   REMARKS
FRISCO         CLEAR     73  67  81 NE5       30.03R

$$

NCZ095-097-098-100-101-250100-
SOUTHERN COAST

CITY           SKY/WX    TMP DP  RH WIND       PRES   REMARKS
BEAUFORT       CLEAR     77  68  73 CALM      30.02R
CEDAR ISLAND   NOT AVBL
JACKSONVILLE   CLEAR     75  71  87 CALM      30.01S
PINEY ISLAND   CLEAR    N/A N/A N/A SE3       30.01S
WILMINGTON     CLEAR     76  72  87 CALM      30.02R


$$

NCZ011>013-027>030-043-044-078>080-089-090>093-098-250100-
COASTAL PLAIN

CITY           SKY/WX    TMP DP  RH WIND       PRES   REMARKS
AHOSKIE        CLEAR     75  71  87 NE5       30.04S
CLINTON        CLEAR     75  71  86 CALM      30.02S
ELIZABETHTOWN  CLEAR     77  70  78 CALM      30.02S
GOLDSBORO      CLEAR     77  73  88 CALM      30.00S
GREENVILLE     CLEAR     73  73 100 CALM      30.03S
HAVELOCK       CLEAR     77  72  84 S3        30.02S
KENANSVILLE    CLEAR     73  72  94 CALM      30.03R
KINSTON        CLEAR     73  72  94 CALM      30.02F
NEW BERN       CLEAR     75  71  87 CALM      30.02F
RICHLANDS      CLEAR     74  72  93 CALM      30.02S
ROCKY MOUNT    CLEAR     75  73  93 CALM      30.02R
WASHINGTON     CLEAR     74  72  91 CALM      30.02R
WHITEVILLE     CLEAR     75  70  85 CALM      30.02R

$$

AMZ130-135-150-152-154-156-158-170-250-252-270-ANZ085-086-088-633-658-670-250100-
MARINE OBSERVATIONS

STATION/POSITION TIME  TEMP    WIND        PRES    WAVE   SWELL
                       AIR SEA DIR/SP/G            HT/PER HT/PER
                 (UTC) (F)     (DEG/KT/KT) (MB)    (FT/S) (FT/S)
CHESAPEAKE LIGHT NOT AVBL
64 E VA BEACH    2350   73 75   20/ 17/ 19 1016.9    5/11   3/11
DUCK             2354   74 79   40/ 15/ 18 1017.1
2 E DUCK         0011      78                N/A     4/11   2/11
OREGON INLET     2354   75 80   20/ 12/ 15 1017.1
13E OREGON INLT  0000      77                N/A     4/11   5/11
HATTERAS CG      2354   78 82   70/  2/  3 1016.4
DIAMOND BUOY     2350   79 81   30/  8/ 10 1016.4    6/11   5/11
CAPE LOOKOUT     0000   80      80/  7/  8 1016.1
BEAUFORT LAB     2354   79 80  140/  2/  3 1015.8
30 SE NEW RVR IN 0008   80 82   50/  6/  8 1016.5
30 SE NEW RVR IN 2355      82                N/A     3/11   2/11
27 SE WRIGHTSVLE 0008   80 82   50/ 10/ 12 1016.6
5 SE WRIGHTSVLE  2308   80 82  110/  4/  6 1017.3
225 S CAPE HAT   2350   82 83  340/  6/  8 1015.3    4/11   3/11
41 SE CHARLESTON 2350   81 83   70/ 10/ 10 1015.8    3/11   3/11

$$




USA.gov is the U.S. government's official web portal to all federal, state and local government web resources and services.